,,PA_Meas_PMT16A,,PR_Meas_QMR101_102,,RH_Meas_QMH101,,SR_Meas_QMS101,,TA_Meas_QMH101,,GenWind,,GenWind,
time,status,PA,status,PR,status,RH,status,SR,status,TA,status,DirAvg,status,SpdAvg,
2012-10-01, 00:00:04,VALID,919.933,VALID,0,VALID,96.1999,VALID,0,VALID,19.1402,VALID,113,VALID,0,
2012-10-01, 00:01:04,VALID,919.886,VALID,0,VALID,96.1999,VALID,0,VALID,19.1402,VALID,113,VALID,0,
2012-10-01, 00:02:04,VALID,919.855,VALID,0,VALID,96.238,VALID,0,VALID,19.1402,VALID,113,VALID,0,
2012-10-01, 00:03:04,VALID,919.865,VALID,0,VALID,96.1923,VALID,0,VALID,19.1402,VALID,123,VALID,0,
2012-10-01, 00:04:04,VALID,919.85,VALID,0,VALID,96.2075,VALID,0,VALID,19.1012,VALID,124,VALID,0,
2012-10-01, 00:05:04,VALID,919.823,VALID,0,VALID,96.2151,VALID,0,VALID,19.1222,VALID,124,VALID,0,
2012-10-01, 00:06:04,VALID,919.819,VALID,0,VALID,96.2456,VALID,0,VALID,19.1207,VALID,113,VALID,0,
2012-10-01, 00:07:04,VALID,919.799,VALID,0,VALID,96.2533,VALID,0,VALID,19.1012,VALID,112,VALID,0,
2012-10-01, 00:08:04,VALID,919.83,VALID,0,VALID,96.4133,VALID,0,VALID,19.1402,VALID,127,VALID,0,
2012-10-01, 00:09:04,VALID,919.832,VALID,0,VALID,96.4286,VALID,0,VALID,19.1402,VALID,116,VALID,0,
2012-10-01, 00:10:04,VALID,919.837,VALID,0,VALID,96.3676,VALID,0,VALID,19.1207,VALID,116,VALID,0,
2012-10-01, 00:11:04,VALID,919.811,VALID,0,VALID,96.4819,VALID,0,VALID,19.1612,VALID,123,VALID,0,
2012-10-01, 00:12:04,VALID,919.795,VALID,0,VALID,96.4362,VALID,0,VALID,19.1402,VALID,123,VALID,0,
2012-10-01, 00:13:04,VALID,919.809,VALID,0,VALID,96.421,VALID,0,VALID,19.1012,VALID,123,VALID,0,
2012-10-01, 00:14:04,VALID,919.758,VALID,0,VALID,96.3905,VALID,0,VALID,19.0817,VALID,123,VALID,0,
2012-10-01, 00:15:04,VALID,919.723,VALID,0,VALID,96.4133,VALID,0,VALID,19.0622,VALID,123,VALID,0,
2012-10-01, 00:16:04,VALID,919.728,VALID,0,VALID,96.4743,VALID,0,VALID,19.0622,VALID,141,VALID,0,
2012-10-01, 00:17:04,VALID,919.711,VALID,0,VALID,96.4286,VALID,0,VALID,19.0622,VALID,140,VALID,0,
2012-10-01, 00:18:04,VALID,919.708,VALID,0,VALID,96.4667,VALID,0,VALID,19.0427,VALID,139,VALID,0,
2012-10-01, 00:19:04,VALID,919.7,VALID,0,VALID,96.421,VALID,0,VALID,19.0232,VALID,127,VALID,0,
2012-10-01, 00:20:04,VALID,919.708,VALID,0,VALID,96.36,VALID,0,VALID,19.0037,VALID,127,VALID,0,
2012-10-01, 00:21:04,VALID,919.715,VALID,0,VALID,96.3295,VALID,0,VALID,18.9842,VALID,126,VALID,0,
2012-10-01, 00:22:04,VALID,919.713,VALID,0,VALID,96.3219,VALID,0,VALID,18.9647,VALID,120,VALID,0,
2012-10-01, 00:23:04,VALID,919.661,VALID,0,VALID,96.3066,VALID,0,VALID,18.9452,VALID,125,VALID,0,
2012-10-01, 00:24:04,VALID,919.641,VALID,0,VALID,96.3219,VALID,0,VALID,18.9257,VALID,125,VALID,0,
2012-10-01, 00:25:04,VALID,919.624,VALID,0,VALID,96.3829,VALID,0,VALID,18.9452,VALID,125,VALID,0,
2012-10-01, 00:26:04,VALID,919.608,VALID,0,VALID,96.3447,VALID,0,VALID,18.9062,VALID,125,VALID,0,
2012-10-01, 00:27:04,VALID,919.589,VALID,0,VALID,96.4515,VALID,0,VALID,18.9467,VALID,125,VALID,0,
2012-10-01, 00:28:04,VALID,919.57,VALID,0,VALID,96.4438,VALID,0,VALID,18.8867,VALID,125,VALID,0,
2012-10-01, 00:29:04,VALID,919.574,VALID,0,VALID,96.4515,VALID,0,VALID,18.9062,VALID,125,VALID,0,
2012-10-01, 00:30:04,VALID,919.528,VALID,0,VALID,96.4743,VALID,0,VALID,18.9062,VALID,125,VALID,0,
2012-10-01, 00:31:04,VALID,919.503,VALID,0,VALID,96.4972,VALID,0,VALID,18.9062,VALID,125,VALID,0,
2012-10-01, 00:32:04,VALID,919.487,VALID,0,VALID,96.4667,VALID,0,VALID,18.8867,VALID,127,VALID,0,
2012-10-01, 00:33:04,VALID,919.521,VALID,0,VALID,96.5658,VALID,0,VALID,18.9062,VALID,157,VALID,0,
2012-10-01, 00:34:04,VALID,919.48,VALID,0,VALID,96.5811,VALID,0,VALID,18.9062,VALID,153,VALID,0,
2012-10-01, 00:35:04,VALID,919.415,VALID,0,VALID,96.642,VALID,0,VALID,18.9467,VALID,147,VALID,0,
2012-10-01, 00:36:04,VALID,919.386,VALID,0,VALID,96.6039,VALID,0,VALID,18.8853,VALID,149,VALID,0,
2012-10-01, 00:37:04,VALID,919.395,VALID,0,VALID,96.6497,VALID,0,VALID,18.9062,VALID,156,VALID,0,
2012-10-01, 00:38:04,VALID,919.385,VALID,0,VALID,96.6802,VALID,0,VALID,18.8867,VALID,142,VALID,0,
2012-10-01, 00:39:04,VALID,919.359,VALID,0,VALID,96.703,VALID,0,VALID,18.8867,VALID,135,VALID,0,
2012-10-01, 00:40:04,VALID,919.338,VALID,0,VALID,96.6878,VALID,0,VALID,18.9286,VALID,146,VALID,0,
2012-10-01, 00:41:04,VALID,919.319,VALID,0,VALID,96.7335,VALID,0,VALID,18.8867,VALID,151,VALID,0,
2012-10-01, 00:42:04,VALID,919.311,VALID,0,VALID,96.7564,VALID,0,VALID,18.8867,VALID,148,VALID,0,
2012-10-01, 00:43:04,VALID,919.3,VALID,0,VALID,96.7945,VALID,0,VALID,18.9062,VALID,132,VALID,0,
2012-10-01, 00:44:04,VALID,919.271,VALID,0,VALID,96.825,VALID,0,VALID,18.9077,VALID,132,VALID,0,
2012-10-01, 00:45:04,VALID,919.262,VALID,0,VALID,96.8174,VALID,0,VALID,18.9062,VALID,158,VALID,0,
2012-10-01, 00:46:04,VALID,919.25,VALID,0,VALID,96.825,VALID,0,VALID,18.9272,VALID,161,VALID,0,
2012-10-01, 00:47:04,VALID,919.26,VALID,0,VALID,96.8403,VALID,0,VALID,18.8867,VALID,159,VALID,0,
2012-10-01, 00:48:04,VALID,919.228,VALID,0,VALID,96.825,VALID,0,VALID,18.8867,VALID,144,VALID,0,
2012-10-01, 00:49:04,VALID,919.23,VALID,0,VALID,96.825,VALID,0,VALID,18.8867,VALID,160,VALID,0,
2012-10-01, 00:50:04,VALID,919.216,VALID,0,VALID,96.8326,VALID,0,VALID,18.8477,VALID,160,VALID,0,
2012-10-01, 00:51:04,VALID,919.218,VALID,0,VALID,96.8326,VALID,0,VALID,18.7892,VALID,160,VALID,0,
2012-10-01, 00:52:04,VALID,919.192,VALID,0,VALID,96.825,VALID,0,VALID,18.7503,VALID,158,VALID,0,
2012-10-01, 00:53:04,VALID,919.157,VALID,0,VALID,96.8174,VALID,0,VALID,18.7113,VALID,147,VALID,0,
2012-10-01, 00:54:04,VALID,919.148,VALID,0,VALID,96.7869,VALID,0,VALID,18.6723,VALID,120,VALID,0,
2012-10-01, 00:55:04,VALID,919.123,VALID,0,VALID,96.8021,VALID,0,VALID,18.5943,VALID,120,VALID,0,
2012-10-01, 00:56:04,VALID,919.138,VALID,0,VALID,96.8021,VALID,0,VALID,18.5943,VALID,121,VALID,0,
2012-10-01, 00:57:04,VALID,919.163,VALID,0,VALID,96.8326,VALID,0,VALID,18.6152,VALID,140,VALID,0,
2012-10-01, 00:58:04,VALID,919.17,VALID,0,VALID,96.8707,VALID,0,VALID,18.5943,VALID,145,VALID,0,
2012-10-01, 00:59:04,VALID,919.171,VALID,0,VALID,96.886,VALID,0,VALID,18.5943,VALID,142,VALID,0,
2012-10-01, 01:00:04,VALID,919.165,VALID,0,VALID,96.8707,VALID,0,VALID,18.5358,VALID,126,VALID,0,
2012-10-01, 01:01:04,VALID,919.152,VALID,0,VALID,96.8707,VALID,0,VALID,18.5163,VALID,114,VALID,0,
2012-10-01, 01:02:04,VALID,919.134,VALID,0,VALID,96.9012,VALID,0,VALID,18.4773,VALID,121,VALID,0,
2012-10-01, 01:03:04,VALID,919.141,VALID,0,VALID,96.9012,VALID,0,VALID,18.4968,VALID,133,VALID,0,
2012-10-01, 01:04:04,VALID,919.114,VALID,0,VALID,96.9089,VALID,0,VALID,18.4787,VALID,131,VALID,0,
2012-10-01, 01:05:04,VALID,919.096,VALID,0,VALID,96.9241,VALID,0,VALID,18.4383,VALID,121,VALID,0,
2012-10-01, 01:06:04,VALID,919.079,VALID,0,VALID,96.947,VALID,0,VALID,18.4188,VALID,127,VALID,0,
2012-10-01, 01:07:04,VALID,919.071,VALID,0,VALID,96.9698,VALID,0,VALID,18.3993,VALID,120,VALID,0,
2012-10-01, 01:08:04,VALID,919.065,VALID,0,VALID,96.9698,VALID,0,VALID,18.4383,VALID,126,VALID,0,
2012-10-01, 01:09:04,VALID,919.062,VALID,0,VALID,97.008,VALID,0,VALID,18.3993,VALID,125,VALID,0,
2012-10-01, 01:10:04,VALID,919.055,VALID,0,VALID,97.0232,VALID,0,VALID,18.4188,VALID,145,VALID,0,
2012-10-01, 01:11:04,VALID,919.056,VALID,0,VALID,97.0461,VALID,0,VALID,18.4383,VALID,159,VALID,0,
2012-10-01, 01:12:04,VALID,919.051,VALID,0,VALID,97.0918,VALID,0,VALID,18.4383,VALID,144,VALID,0,
2012-10-01, 01:13:04,VALID,919.061,VALID,0,VALID,97.0994,VALID,0,VALID,18.4383,VALID,153,VALID,0,
2012-10-01, 01:14:04,VALID,919.08,VALID,0,VALID,97.1147,VALID,0,VALID,18.3979,VALID,153,VALID,0,
2012-10-01, 01:15:04,VALID,919.085,VALID,0,VALID,97.1147,VALID,0,VALID,18.4188,VALID,168,VALID,0,
2012-10-01, 01:16:04,VALID,919.077,VALID,0,VALID,97.1452,VALID,0,VALID,18.4383,VALID,165,VALID,0,
2012-10-01, 01:17:04,VALID,919.024,VALID,0,VALID,97.1299,VALID,0,VALID,18.4383,VALID,172,VALID,0,
2012-10-01, 01:18:04,VALID,919.054,VALID,0,VALID,97.1452,VALID,0,VALID,18.4188,VALID,140,VALID,0.00507812,
2012-10-01, 01:19:04,VALID,919.055,VALID,0,VALID,97.1681,VALID,0,VALID,18.4188,VALID,141,VALID,0.0289063,
2012-10-01, 01:20:04,VALID,919.067,VALID,0,VALID,97.1452,VALID,0,VALID,18.3798,VALID,144,VALID,0,
2012-10-01, 01:21:04,VALID,919.039,VALID,0,VALID,97.1528,VALID,0,VALID,18.3993,VALID,137,VALID,0,
2012-10-01, 01:22:04,VALID,919.03,VALID,0,VALID,97.1452,VALID,0,VALID,18.3798,VALID,143,VALID,0,
2012-10-01, 01:23:04,VALID,919.017,VALID,0,VALID,97.1528,VALID,0,VALID,18.4397,VALID,138,VALID,0,
2012-10-01, 01:24:04,VALID,919.022,VALID,0,VALID,97.1833,VALID,0,VALID,18.4188,VALID,155,VALID,0,
2012-10-01, 01:25:04,VALID,919.018,VALID,0,VALID,97.1681,VALID,0,VALID,18.4397,VALID,146,VALID,0,
2012-10-01, 01:26:04,VALID,918.98,VALID,0,VALID,97.1909,VALID,0,VALID,18.3993,VALID,169,VALID,0,
2012-10-01, 01:27:04,VALID,918.982,VALID,0,VALID,97.1757,VALID,0,VALID,18.3993,VALID,145,VALID,0,
2012-10-01, 01:28:04,VALID,918.984,VALID,0,VALID,97.1757,VALID,0,VALID,18.3993,VALID,148,VALID,0,
2012-10-01, 01:29:04,VALID,918.956,VALID,0,VALID,97.1528,VALID,0,VALID,18.3993,VALID,155,VALID,0,
2012-10-01, 01:30:04,VALID,919.001,VALID,0,VALID,97.1528,VALID,0,VALID,18.3993,VALID,162,VALID,0,
2012-10-01, 01:31:04,VALID,919.008,VALID,0,VALID,97.1528,VALID,0,VALID,18.4188,VALID,161,VALID,0,
2012-10-01, 01:32:04,VALID,918.989,VALID,0,VALID,97.1452,VALID,0,VALID,18.4188,VALID,144,VALID,0,
2012-10-01, 01:33:04,VALID,918.932,VALID,0,VALID,97.1452,VALID,0,VALID,18.3993,VALID,128,VALID,0,
2012-10-01, 01:34:04,VALID,918.932,VALID,0,VALID,97.1299,VALID,0,VALID,18.3603,VALID,137,VALID,0,
2012-10-01, 01:35:04,VALID,918.92,VALID,0,VALID,97.0842,VALID,0,VALID,18.3213,VALID,113,VALID,0,
2012-10-01, 01:36:04,VALID,918.944,VALID,0,VALID,97.069,VALID,0,VALID,18.3018,VALID,111,VALID,0,
2012-10-01, 01:37:04,VALID,918.95,VALID,0,VALID,97.0461,VALID,0,VALID,18.3018,VALID,108,VALID,0,
2012-10-01, 01:38:04,VALID,918.909,VALID,0,VALID,97.0461,VALID,0,VALID,18.2823,VALID,142,VALID,0,
2012-10-01, 01:39:04,VALID,918.906,VALID,0,VALID,97.0156,VALID,0,VALID,18.2433,VALID,154,VALID,0,
2012-10-01, 01:40:04,VALID,918.89,VALID,0,VALID,97.0461,VALID,0,VALID,18.2628,VALID,152,VALID,0,
2012-10-01, 01:41:04,VALID,918.889,VALID,0,VALID,97.0461,VALID,0,VALID,18.3018,VALID,160,VALID,0,
2012-10-01, 01:42:04,VALID,918.893,VALID,0,VALID,97.0766,VALID,0,VALID,18.3213,VALID,183,VALID,0,
2012-10-01, 01:43:04,VALID,918.876,VALID,0,VALID,97.0918,VALID,0,VALID,18.3408,VALID,161,VALID,0,
2012-10-01, 01:44:04,VALID,918.87,VALID,0,VALID,97.0537,VALID,0,VALID,18.3408,VALID,164,VALID,0,
2012-10-01, 01:45:04,VALID,918.851,VALID,0,VALID,97.0385,VALID,0,VALID,18.3213,VALID,163,VALID,0,
2012-10-01, 01:46:04,VALID,918.872,VALID,0,VALID,97.0232,VALID,0,VALID,18.3408,VALID,160,VALID,0,
2012-10-01, 01:47:04,VALID,918.856,VALID,0,VALID,97.008,VALID,0,VALID,18.3408,VALID,169,VALID,0,
2012-10-01, 01:48:04,VALID,918.84,VALID,0,VALID,96.9927,VALID,0,VALID,18.3408,VALID,162,VALID,0,
2012-10-01, 01:49:04,VALID,918.826,VALID,0,VALID,96.9698,VALID,0,VALID,18.3603,VALID,143,VALID,0,
2012-10-01, 01:50:04,VALID,918.823,VALID,0,VALID,96.9394,VALID,0,VALID,18.3603,VALID,160,VALID,0,
2012-10-01, 01:51:04,VALID,918.814,VALID,0,VALID,96.9546,VALID,0,VALID,18.3603,VALID,154,VALID,0,
2012-10-01, 01:52:04,VALID,918.79,VALID,0,VALID,96.8936,VALID,0,VALID,18.3798,VALID,153,VALID,0,
2012-10-01, 01:53:04,VALID,918.75,VALID,0,VALID,96.8631,VALID,0,VALID,18.3798,VALID,154,VALID,0,
2012-10-01, 01:54:04,VALID,918.765,VALID,0,VALID,96.7716,VALID,0,VALID,18.3603,VALID,154,VALID,0,
2012-10-01, 01:55:04,VALID,918.761,VALID,0,VALID,96.6878,VALID,0,VALID,18.4007,VALID,147,VALID,0,
2012-10-01, 01:56:04,VALID,918.756,VALID,0,VALID,96.5811,VALID,0,VALID,18.3603,VALID,137,VALID,0,
2012-10-01, 01:57:04,VALID,918.748,VALID,0,VALID,96.5811,VALID,0,VALID,18.3993,VALID,137,VALID,0,
2012-10-01, 01:58:04,VALID,918.708,VALID,0,VALID,96.4667,VALID,0,VALID,18.3993,VALID,137,VALID,0,
2012-10-01, 01:59:04,VALID,918.718,VALID,0,VALID,96.3676,VALID,0,VALID,18.3993,VALID,137,VALID,0,
2012-10-01, 02:00:04,VALID,918.689,VALID,0,VALID,96.3371,VALID,0,VALID,18.3993,VALID,137,VALID,0,
2012-10-01, 02:01:04,VALID,918.661,VALID,0,VALID,96.1618,VALID,0,VALID,18.3993,VALID,137,VALID,0,
2012-10-01, 02:02:04,VALID,918.639,VALID,0,VALID,96.0855,VALID,0,VALID,18.3993,VALID,137,VALID,0,
2012-10-01, 02:03:04,VALID,918.58,VALID,0,VALID,96.0093,VALID,0,VALID,18.4202,VALID,137,VALID,0,
2012-10-01, 02:04:04,VALID,918.609,VALID,0,VALID,95.8492,VALID,0,VALID,18.3603,VALID,137,VALID,0,
2012-10-01, 02:05:04,VALID,918.583,VALID,0,VALID,95.8035,VALID,0,VALID,18.3394,VALID,137,VALID,0,
2012-10-01, 02:06:04,VALID,918.621,VALID,0,VALID,95.7425,VALID,0,VALID,18.3004,VALID,137,VALID,0,
2012-10-01, 02:07:04,VALID,918.617,VALID,0,VALID,95.6967,VALID,0,VALID,18.2587,VALID,137,VALID,0,
2012-10-01, 02:08:04,VALID,918.616,VALID,0,VALID,95.7044,VALID,0,VALID,18.3617,VALID,137,VALID,0,
2012-10-01, 02:09:04,VALID,918.604,VALID,0,VALID,95.6129,VALID,0,VALID,18.3408,VALID,137,VALID,0,
2012-10-01, 02:10:04,VALID,918.598,VALID,0,VALID,95.5062,VALID,0,VALID,18.3018,VALID,137,VALID,0,
2012-10-01, 02:11:04,VALID,918.602,VALID,0,VALID,95.4528,VALID,0,VALID,18.2823,VALID,137,VALID,0,
2012-10-01, 02:12:04,VALID,918.591,VALID,0,VALID,95.3308,VALID,0,VALID,18.2628,VALID,137,VALID,0,
2012-10-01, 02:13:04,VALID,918.59,VALID,0,VALID,95.3461,VALID,0.107441,VALID,18.2225,VALID,137,VALID,0,
2012-10-01, 02:14:04,VALID,918.599,VALID,0,VALID,95.2851,VALID,0,VALID,18.2044,VALID,137,VALID,0,
2012-10-01, 02:15:04,VALID,918.617,VALID,0,VALID,95.4223,VALID,0,VALID,18.1445,VALID,122,VALID,0,
2012-10-01, 02:16:04,VALID,918.599,VALID,0,VALID,95.4147,VALID,0,VALID,18.125,VALID,123,VALID,0,
2012-10-01, 02:17:04,VALID,918.616,VALID,0,VALID,95.5367,VALID,0,VALID,18.1069,VALID,125,VALID,0,
2012-10-01, 02:18:04,VALID,918.621,VALID,0,VALID,95.5214,VALID,0,VALID,18.0498,VALID,118,VALID,0,
2012-10-01, 02:19:04,VALID,918.671,VALID,0,VALID,95.5976,VALID,0,VALID,17.9913,VALID,101,VALID,0,
2012-10-01, 02:20:04,VALID,918.668,VALID,0,VALID,95.8187,VALID,0,VALID,17.9496,VALID,110,VALID,0,
2012-10-01, 02:21:04,VALID,918.644,VALID,0,VALID,95.8873,VALID,0,VALID,17.9523,VALID,111,VALID,0,
2012-10-01, 02:22:04,VALID,918.654,VALID,0,VALID,96.0398,VALID,0,VALID,17.9314,VALID,111,VALID,0,
2012-10-01, 02:23:04,VALID,918.684,VALID,0,VALID,96.1236,VALID,0,VALID,17.9119,VALID,111,VALID,0,
2012-10-01, 02:24:04,VALID,918.635,VALID,0,VALID,96.177,VALID,0,VALID,17.873,VALID,111,VALID,0,
2012-10-01, 02:25:04,VALID,918.621,VALID,0,VALID,96.3142,VALID,0,VALID,17.8938,VALID,110,VALID,0,
2012-10-01, 02:26:04,VALID,918.59,VALID,0,VALID,96.3676,VALID,0,VALID,17.8911,VALID,110,VALID,0,
2012-10-01, 02:27:04,VALID,918.611,VALID,0,VALID,96.3981,VALID,0,VALID,17.9523,VALID,110,VALID,0,
2012-10-01, 02:28:04,VALID,918.596,VALID,0,VALID,96.3295,VALID,0,VALID,17.9119,VALID,91,VALID,0,
2012-10-01, 02:29:04,VALID,918.587,VALID,0,VALID,96.2914,VALID,0,VALID,17.9119,VALID,87,VALID,0,
2012-10-01, 02:30:04,VALID,918.581,VALID,0,VALID,96.4057,VALID,0,VALID,17.9523,VALID,88,VALID,0,
2012-10-01, 02:31:04,VALID,918.571,VALID,0,VALID,96.3219,VALID,0,VALID,17.9119,VALID,87,VALID,0,
2012-10-01, 02:32:04,VALID,918.547,VALID,0,VALID,96.3295,VALID,0,VALID,17.9718,VALID,111,VALID,0,
2012-10-01, 02:33:04,VALID,918.556,VALID,0,VALID,96.2228,VALID,0,VALID,17.9314,VALID,103,VALID,0,
2012-10-01, 02:34:04,VALID,918.553,VALID,0,VALID,96.2228,VALID,0,VALID,17.9314,VALID,121,VALID,0,
2012-10-01, 02:35:04,VALID,918.527,VALID,0,VALID,96.2533,VALID,0,VALID,17.9301,VALID,124,VALID,0,
2012-10-01, 02:36:04,VALID,918.504,VALID,0,VALID,96.1694,VALID,0,VALID,17.9301,VALID,127,VALID,0,
2012-10-01, 02:37:04,VALID,918.468,VALID,0,VALID,96.1846,VALID,0.107441,VALID,17.9496,VALID,116,VALID,0,
2012-10-01, 02:38:04,VALID,918.46,VALID,0,VALID,96.1313,VALID,0,VALID,17.9496,VALID,123,VALID,0,
2012-10-01, 02:39:04,VALID,918.441,VALID,0,VALID,96.116,VALID,0,VALID,17.9899,VALID,122,VALID,0,
2012-10-01, 02:40:04,VALID,918.44,VALID,0,VALID,96.0779,VALID,0,VALID,17.9691,VALID,122,VALID,0,
2012-10-01, 02:41:04,VALID,918.451,VALID,0,VALID,95.9483,VALID,0,VALID,17.9899,VALID,122,VALID,0,
2012-10-01, 02:42:04,VALID,918.461,VALID,0,VALID,95.895,VALID,0,VALID,17.9899,VALID,122,VALID,0,
2012-10-01, 02:43:04,VALID,918.44,VALID,0,VALID,95.8568,VALID,0,VALID,17.9886,VALID,122,VALID,0,
2012-10-01, 02:44:04,VALID,918.424,VALID,0,VALID,95.773,VALID,0,VALID,17.9886,VALID,122,VALID,0,
2012-10-01, 02:45:04,VALID,918.419,VALID,0,VALID,95.7196,VALID,0,VALID,18.0289,VALID,122,VALID,0,
2012-10-01, 02:46:04,VALID,918.375,VALID,0,VALID,95.6129,VALID,0,VALID,18.0289,VALID,122,VALID,0,
2012-10-01, 02:47:04,VALID,918.368,VALID,0,VALID,95.4757,VALID,0,VALID,18.008,VALID,122,VALID,0,
2012-10-01, 02:48:04,VALID,918.363,VALID,0,VALID,95.3461,VALID,0,VALID,18.0303,VALID,122,VALID,0,
2012-10-01, 02:49:04,VALID,918.377,VALID,0,VALID,95.2698,VALID,0,VALID,18.0094,VALID,122,VALID,0,
2012-10-01, 02:50:04,VALID,918.39,VALID,0,VALID,95.1097,VALID,0,VALID,18.0094,VALID,122,VALID,0,
2012-10-01, 02:51:04,VALID,918.391,VALID,0,VALID,95.0564,VALID,0,VALID,17.9899,VALID,114,VALID,0,
2012-10-01, 02:52:04,VALID,918.41,VALID,0,VALID,95.1097,VALID,0,VALID,18.0108,VALID,114,VALID,0,
2012-10-01, 02:53:04,VALID,918.361,VALID,0,VALID,95.0183,VALID,0,VALID,18.0303,VALID,114,VALID,0,
2012-10-01, 02:54:04,VALID,918.325,VALID,0,VALID,94.9649,VALID,0,VALID,18.0108,VALID,122,VALID,0,
2012-10-01, 02:55:04,VALID,918.31,VALID,0,VALID,94.8582,VALID,0,VALID,17.9899,VALID,124,VALID,0,
2012-10-01, 02:56:04,VALID,918.262,VALID,0,VALID,94.8429,VALID,0,VALID,18.0303,VALID,127,VALID,0,
2012-10-01, 02:57:04,VALID,918.258,VALID,0,VALID,94.8505,VALID,0,VALID,18.0289,VALID,133,VALID,0,
2012-10-01, 02:58:04,VALID,918.275,VALID,0,VALID,94.8582,VALID,0,VALID,18.0888,VALID,135,VALID,0,
2012-10-01, 02:59:04,VALID,918.286,VALID,0,VALID,94.7972,VALID,0,VALID,18.0874,VALID,128,VALID,0,
2012-10-01, 03:00:04,VALID,918.292,VALID,0,VALID,94.6905,VALID,0,VALID,18.0888,VALID,128,VALID,0,
2012-10-01, 03:01:04,VALID,918.289,VALID,0,VALID,94.5913,VALID,0,VALID,18.1083,VALID,128,VALID,0,
2012-10-01, 03:02:04,VALID,918.322,VALID,0,VALID,94.4922,VALID,0,VALID,18.1083,VALID,129,VALID,0,
2012-10-01, 03:03:04,VALID,918.318,VALID,0,VALID,94.4313,VALID,0,VALID,18.0874,VALID,129,VALID,0,
2012-10-01, 03:04:04,VALID,918.292,VALID,0,VALID,94.3626,VALID,0.107441,VALID,18.0679,VALID,129,VALID,0,
2012-10-01, 03:05:04,VALID,918.293,VALID,0,VALID,94.3017,VALID,0,VALID,18.0679,VALID,129,VALID,0,
2012-10-01, 03:06:04,VALID,918.273,VALID,0,VALID,94.2559,VALID,0.107441,VALID,18.047,VALID,129,VALID,0,
2012-10-01, 03:07:04,VALID,918.241,VALID,0,VALID,94.1339,VALID,0,VALID,18.0275,VALID,129,VALID,0,
2012-10-01, 03:08:04,VALID,918.219,VALID,0,VALID,94.2254,VALID,0,VALID,18.0275,VALID,129,VALID,0,
2012-10-01, 03:09:04,VALID,918.222,VALID,0,VALID,94.2635,VALID,0,VALID,18.0484,VALID,129,VALID,0,
2012-10-01, 03:10:04,VALID,918.233,VALID,0,VALID,94.3093,VALID,0.107441,VALID,18.0679,VALID,129,VALID,0,
2012-10-01, 03:11:04,VALID,918.241,VALID,0,VALID,94.3245,VALID,0,VALID,18.0874,VALID,129,VALID,0,
2012-10-01, 03:12:04,VALID,918.233,VALID,0,VALID,94.1187,VALID,0,VALID,18.0665,VALID,129,VALID,0,
2012-10-01, 03:13:04,VALID,918.205,VALID,0,VALID,93.6537,VALID,0,VALID,17.9886,VALID,129,VALID,0,
2012-10-01, 03:14:04,VALID,918.207,VALID,0,VALID,93.4097,VALID,0.107441,VALID,17.8925,VALID,129,VALID,0,
2012-10-01, 03:15:04,VALID,918.199,VALID,0,VALID,94.0653,VALID,0,VALID,17.834,VALID,129,VALID,0,
2012-10-01, 03:16:04,VALID,918.206,VALID,0,VALID,94.4999,VALID,0,VALID,17.8535,VALID,129,VALID,0,
2012-10-01, 03:17:04,VALID,918.208,VALID,0,VALID,94.5456,VALID,0,VALID,17.8535,VALID,129,VALID,0,
2012-10-01, 03:18:04,VALID,918.234,VALID,0,VALID,94.4922,VALID,0,VALID,17.8145,VALID,129,VALID,0,
2012-10-01, 03:19:04,VALID,918.25,VALID,0,VALID,94.416,VALID,0,VALID,17.795,VALID,129,VALID,0,
2012-10-01, 03:20:04,VALID,918.265,VALID,0,VALID,94.538,VALID,0,VALID,17.7755,VALID,129,VALID,0,
2012-10-01, 03:21:04,VALID,918.294,VALID,0,VALID,94.3169,VALID,0,VALID,17.7365,VALID,129,VALID,0,
2012-10-01, 03:22:04,VALID,918.278,VALID,0,VALID,94.233,VALID,0,VALID,17.6962,VALID,129,VALID,0,
2012-10-01, 03:23:04,VALID,918.255,VALID,0,VALID,94.4846,VALID,0,VALID,17.717,VALID,129,VALID,0,
2012-10-01, 03:24:04,VALID,918.234,VALID,0,VALID,94.5151,VALID,0,VALID,17.717,VALID,129,VALID,0,
2012-10-01, 03:25:04,VALID,918.235,VALID,0,VALID,94.6905,VALID,0,VALID,17.6975,VALID,130,VALID,0,
2012-10-01, 03:26:04,VALID,918.209,VALID,0,VALID,94.7133,VALID,0,VALID,17.6975,VALID,130,VALID,0,
2012-10-01, 03:27:04,VALID,918.266,VALID,0,VALID,94.8658,VALID,0.107441,VALID,17.6767,VALID,138,VALID,0,
2012-10-01, 03:28:04,VALID,918.272,VALID,0,VALID,94.9344,VALID,0.107441,VALID,17.678,VALID,133,VALID,0,
2012-10-01, 03:29:04,VALID,918.302,VALID,0,VALID,94.9344,VALID,0,VALID,17.678,VALID,131,VALID,0,
2012-10-01, 03:30:04,VALID,918.307,VALID,0,VALID,94.8505,VALID,0,VALID,17.6585,VALID,140,VALID,0,
2012-10-01, 03:31:04,VALID,918.302,VALID,0,VALID,94.9192,VALID,0,VALID,17.6585,VALID,132,VALID,0,
2012-10-01, 03:32:04,VALID,918.316,VALID,0,VALID,94.8658,VALID,0.107441,VALID,17.6767,VALID,132,VALID,0,
2012-10-01, 03:33:04,VALID,918.304,VALID,0,VALID,94.8124,VALID,0,VALID,17.6794,VALID,132,VALID,0,
2012-10-01, 03:34:04,VALID,918.293,VALID,0,VALID,94.7209,VALID,0,VALID,17.6794,VALID,132,VALID,0,
2012-10-01, 03:35:04,VALID,918.355,VALID,0,VALID,94.6371,VALID,0,VALID,17.6585,VALID,132,VALID,0,
2012-10-01, 03:36:04,VALID,918.317,VALID,0,VALID,94.5532,VALID,0,VALID,17.6404,VALID,132,VALID,0,
2012-10-01, 03:37:04,VALID,918.375,VALID,0,VALID,94.4846,VALID,0,VALID,17.6404,VALID,140,VALID,0,
2012-10-01, 03:38:04,VALID,918.323,VALID,0,VALID,94.4465,VALID,0,VALID,17.6404,VALID,143,VALID,0,
2012-10-01, 03:39:04,VALID,918.348,VALID,0,VALID,94.4465,VALID,0,VALID,17.6585,VALID,143,VALID,0,
2012-10-01, 03:40:04,VALID,918.307,VALID,0,VALID,94.4313,VALID,0,VALID,17.7379,VALID,136,VALID,0,
2012-10-01, 03:41:04,VALID,918.292,VALID,0,VALID,94.3169,VALID,0,VALID,17.7963,VALID,136,VALID,0,
2012-10-01, 03:42:04,VALID,918.289,VALID,0,VALID,94.1873,VALID,0,VALID,17.8548,VALID,136,VALID,0,
2012-10-01, 03:43:04,VALID,918.254,VALID,0,VALID,93.9129,VALID,0,VALID,17.873,VALID,136,VALID,0,
2012-10-01, 03:44:04,VALID,918.279,VALID,0,VALID,93.6994,VALID,0,VALID,17.9328,VALID,136,VALID,0,
2012-10-01, 03:45:04,VALID,918.283,VALID,0,VALID,93.4936,VALID,0,VALID,17.9119,VALID,136,VALID,0,
2012-10-01, 03:46:04,VALID,918.319,VALID,0,VALID,93.3106,VALID,0,VALID,17.9133,VALID,136,VALID,0,
2012-10-01, 03:47:04,VALID,918.322,VALID,0,VALID,93.059,VALID,0,VALID,17.8938,VALID,139,VALID,0,
2012-10-01, 03:48:04,VALID,918.33,VALID,0,VALID,92.9523,VALID,0,VALID,17.8548,VALID,143,VALID,0,
2012-10-01, 03:49:04,VALID,918.346,VALID,0,VALID,93.2725,VALID,0,VALID,17.8548,VALID,143,VALID,0,
2012-10-01, 03:50:04,VALID,918.359,VALID,0,VALID,93.5164,VALID,0,VALID,17.8938,VALID,143,VALID,0,
2012-10-01, 03:51:04,VALID,918.366,VALID,0,VALID,93.6613,VALID,0,VALID,17.9328,VALID,142,VALID,0,
2012-10-01, 03:52:04,VALID,918.371,VALID,0,VALID,93.6232,VALID,0,VALID,17.9314,VALID,142,VALID,0,
2012-10-01, 03:53:04,VALID,918.399,VALID,0,VALID,93.3716,VALID,0,VALID,17.8925,VALID,142,VALID,0,
2012-10-01, 03:54:04,VALID,918.408,VALID,0,VALID,93.4021,VALID,0,VALID,17.8925,VALID,142,VALID,0,
2012-10-01, 03:55:04,VALID,918.411,VALID,0,VALID,93.3868,VALID,0,VALID,17.8925,VALID,142,VALID,0,
2012-10-01, 03:56:04,VALID,918.418,VALID,0,VALID,93.3716,VALID,0,VALID,17.8938,VALID,142,VALID,0,
2012-10-01, 03:57:04,VALID,918.412,VALID,0,VALID,93.303,VALID,0,VALID,17.8938,VALID,142,VALID,0,
2012-10-01, 03:58:04,VALID,918.407,VALID,0,VALID,93.1581,VALID,0,VALID,17.8548,VALID,142,VALID,0,
2012-10-01, 03:59:04,VALID,918.426,VALID,0,VALID,93.3182,VALID,0,VALID,17.7768,VALID,142,VALID,0,